[[{"header":{"parameterUnit":"m.s-1","parameterCategory":1,"la1":30.2991,"la2":30.254,"lo1":-89.0895,"lo2":-89.0444,"dy":0.0017,"dx":0.0017,"nx":28,"ny":28,"refTime":"2023-09-09T21:00:00:Z","depth":0,"parameterNumber":2,"parameterNumberName":"U-component_of_WINDS"},"data":[0,0,0,0,0,0,0,0,0,0,0,0,0,0,0,0,0,0,0,0,0,0,0,0,0,0,0,0,0,0,0,0,0,0,0,0,0,0,0,0,0,0,0,0,0,0,0,0,0,0,0,0,0,0,0,0,0,0,-0.3323,-0.3323,0,-0.333,-0.333,-0.333,-0.3312,-0.3311,-0.331,-0.331,-0.3318,-0.3319,-0.332,0,0,0,0,0,0,0,0,0,0,0,0,0,-0.3294,-0.3295,-0.3323,-0.3323,-0.3323,-0.333,-0.333,-0.333,-0.3312,-0.3311,-0.331,-0.331,-0.3318,-0.3319,-0.332,0,0,0,0,0,0,0,0,0,0,0,0,0,-0.3305,-0.3295,-0.3323,-0.3315,-0.3314,-0.333,-0.333,-0.333,-0.3312,-0.3311,-0.331,-0.3309,-0.3318,-0.3319,-0.332,-0.3345,0,0,-0.3324,-0.3324,0,0,0,0,0,0,0,0,-0.3304,-0.3306,-0.3316,-0.3315,-0.3315,-0.3319,-0.3323,-0.3335,-0.3312,-0.3313,-0.331,-0.3309,-0.3319,-0.332,-0.3324,-0.3345,-0.3345,-0.3324,-0.3325,-0.3325,-0.3325,0,0,0,0,0,0,0,-0.3303,-0.3305,-0.3326,-0.3316,-0.3315,-0.3311,-0.3311,-0.3325,-0.3321,-0.3313,-0.3311,-0.3312,-0.3319,-0.3323,-0.3324,-0.3346,-0.3324,-0.3325,-0.3326,-0.3326,-0.3387,-0.3387,0,0,0,0,0,0,-0.3304,-0.3305,-0.3325,-0.3326,-0.3307,-0.3312,-0.3313,-0.3318,-0.3321,-0.332,-0.3313,-0.3311,-0.3321,-0.3322,-0.3324,-0.3353,-0.3325,-0.3326,-0.3327,-0.3386,-0.3387,-0.3388,0,0,0,0,0,0,-0.3303,-0.3306,-0.3325,-0.3315,-0.3317,-0.3313,-0.332,-0.3319,-0.3323,-0.3321,-0.332,-0.3317,-0.332,-0.3322,-0.3339,-0.3353,-0.3327,-0.3328,-0.3385,-0.3386,-0.3387,-0.341,0,0,0,0,0,0,-0.3302,-0.3306,-0.3315,-0.3315,-0.3318,-0.3341,-0.3321,-0.332,-0.3325,-0.3322,-0.3325,-0.3325,-0.332,-0.3338,-0.3341,-0.3354,-0.3329,-0.3383,-0.3385,-0.3387,-0.3409,-0.3412,-0.3416,0,0,0,0,0,-0.3301,-0.3322,-0.3315,-0.3318,-0.3329,-0.3341,-0.3343,-0.3337,-0.3326,-0.3335,-0.3334,-0.3325,-0.335,-0.334,-0.3343,-0.3357,-0.3383,-0.3385,-0.3387,-0.3407,-0.3412,-0.3416,0,0,0,0,0,0,-0.3324,-0.3322,-0.3315,-0.3336,-0.3339,-0.3338,-0.335,-0.3342,-0.3349,-0.3347,-0.3339,-0.3339,-0.3358,-0.3359,-0.3347,-0.338,-0.3365,-0.3367,-0.3379,-0.3384,-0.3387,-0.3387,-0.333,0,0,0,0,0,-0.3331,-0.3341,-0.3338,-0.3357,-0.3359,-0.3354,-0.3359,-0.3354,-0.3357,-0.3358,-0.3358,-0.3362,-0.3371,-0.3377,-0.3385,-0.3408,-0.3408,-0.3419,-0.3422,-0.3425,-0.3428,-0.344,-0.3445,-0.3395,-0.3395,-0.3395,0,0,-0.3347,-0.3347,-0.3353,-0.3362,-0.3363,-0.3374,-0.3355,-0.3367,-0.3375,-0.336,-0.3376,-0.3376,-0.338,-0.34,-0.3408,-0.3401,-0.3442,-0.3428,-0.343,-0.3432,-0.3443,-0.3447,-0.3452,-0.3396,-0.3396,-0.3396,0,0,-0.338,-0.3381,-0.3397,-0.3398,-0.3401,-0.3397,-0.3401,-0.3401,-0.34,-0.3416,-0.3405,-0.3413,-0.3429,-0.3432,-0.3435,-0.3468,-0.346,-0.3471,-0.349,-0.3502,-0.3506,-0.3509,-0.3521,-0.3525,-0.3473,-0.3473,-0.3473,0,-0.34,-0.3415,-0.3406,-0.3418,-0.3422,-0.3408,-0.3423,-0.3425,-0.3431,-0.3434,-0.3425,-0.3443,-0.3445,-0.3465,-0.3473,-0.3476,-0.348,-0.3471,-0.3506,-0.3509,-0.3512,-0.3524,-0.3528,-0.3475,-0.3474,-0.3474,-0.3474,0,-0.3438,-0.3449,-0.3461,-0.3465,-0.347,-0.3484,-0.3477,-0.3484,-0.3477,-0.3474,-0.349,-0.3491,-0.3499,-0.3503,-0.3497,-0.3522,-0.3517,-0.3507,-0.3492,-0.3519,-0.3529,-0.3533,-0.3477,-0.3476,-0.3476,-0.3475,0,0,-0.3489,-0.3486,-0.3491,-0.3492,-0.3493,-0.3501,-0.3514,-0.3521,-0.3526,-0.3529,-0.354,-0.3553,-0.3543,-0.3547,-0.3541,-0.3551,-0.3577,-0.354,-0.354,-0.3547,-0.3604,-0.3613,-0.3618,-0.3571,-0.3571,-0.3572,-0.3604,0,-0.3522,-0.3544,-0.3535,-0.3558,-0.3567,-0.3553,-0.3564,-0.3566,-0.3563,-0.357,-0.3567,-0.3577,-0.3563,-0.3565,-0.3574,-0.3572,-0.3588,-0.3569,-0.3581,-0.3582,-0.3582,-0.3623,-0.3632,-0.3663,-0.3608,-0.3609,-0.3609,0,-0.3565,-0.3569,-0.3592,-0.359,-0.3594,-0.3604,-0.3609,-0.3616,-0.3617,-0.3614,-0.3618,-0.3609,-0.3622,-0.3605,-0.3622,-0.361,-0.3614,-0.3613,-0.3614,-0.3616,-0.3598,-0.3627,-0.3672,-0.3677,-0.3616,-0.3615,-0.3615,0,-0.36,-0.3611,-0.3626,-0.3628,-0.3626,-0.3633,-0.3633,-0.3633,-0.3637,-0.3641,-0.3644,-0.3649,-0.3653,-0.3657,-0.3651,-0.3639,-0.3669,-0.3652,-0.3667,-0.3668,-0.3675,-0.3675,-0.3723,-0.3676,-0.3676,-0.3676,-0.3676,0,-0.3639,-0.3654,-0.3642,-0.3652,-0.3668,-0.3657,-0.3673,-0.3671,-0.3671,-0.368,-0.3667,-0.3676,-0.3666,-0.3674,-0.3668,-0.3683,-0.3685,-0.3683,-0.3682,-0.3685,-0.3685,-0.3689,-0.3687,-0.3677,-0.3677,-0.3677,-0.3677,0,-0.3682,-0.3674,-0.369,-0.3686,-0.3685,-0.3697,-0.3694,-0.3702,-0.3698,-0.3709,-0.3711,-0.3704,-0.3712,-0.3705,-0.3714,-0.371,-0.373,-0.3725,-0.373,-0.3729,-0.3745,-0.3743,-0.3797,-0.3803,-0.3752,-0.3752,-0.3753,0,-0.3708,-0.3719,-0.3716,-0.372,-0.372,-0.3728,-0.3732,-0.3721,-0.3726,-0.3727,-0.3735,-0.3742,-0.3747,-0.3761,-0.3757,-0.3763,-0.3758,-0.3776,-0.3759,-0.3762,-0.3759,-0.3759,-0.376,-0.3781,-0.3781,-0.3782,-0.3782,0,-0.3756,-0.3751,-0.3756,-0.376,-0.3765,-0.3768,-0.3769,-0.3774,-0.3763,-0.3769,-0.3776,-0.378,-0.3787,-0.3795,-0.3799,-0.3798,-0.3789,-0.3787,-0.3791,-0.3795,-0.3798,-0.3797,-0.374,-0.3786,-0.3786,-0.3786,-0.3785,-0.3785,-0.3791,-0.38,-0.3799,-0.3805,-0.3805,-0.3806,-0.3814,-0.381,-0.3816,-0.3821,-0.3814,-0.3823,-0.3823,-0.3827,-0.3828,-0.3835,-0.3828,-0.3834,-0.3835,-0.3837,-0.384,-0.3795,-0.3836,-0.3836,-0.3836,-0.3836,-0.3835,0,-0.3839,-0.3836,-0.3842,-0.3845,-0.3849,-0.3838,-0.3839,-0.3844,-0.3852,-0.3852,-0.3857,-0.3865,-0.3872,-0.3867,-0.3873,-0.3879,-0.3875,-0.3881,-0.3881,-0.3881,-0.3846,-0.3842,-0.3884,-0.3884,-0.3884,-0.3884,-0.3884,-0.3884,-0.3864,-0.3878,-0.3873,-0.3887,-0.3884,-0.3893,-0.3894,-0.3896,-0.3895,-0.3905,-0.391,-0.3906,-0.3905,-0.3909,-0.3915,-0.3913,-0.3916,-0.3924,-0.3921,-0.3888,-0.3884,-0.3879,-0.3876,-0.3924,-0.3924,-0.3956,-0.3956,-0.3956]},{"header":{"parameterUnit":"m.s-1","parameterCategory":1,"la1":30.2991,"la2":30.254,"lo1":-89.0895,"lo2":-89.0444,"dy":0.0017,"dx":0.0017,"nx":28,"ny":28,"refTime":"2023-09-09T21:00:00:Z","depth":0,"parameterNumber":3,"parameterNumberName":"V-component_of_WINDS"},"data":[0,0,0,0,0,0,0,0,0,0,0,0,0,0,0,0,0,0,0,0,0,0,0,0,0,0,0,0,0,0,0,0,0,0,0,0,0,0,0,0,0,0,0,0,0,0,0,0,0,0,0,0,0,0,0,0,0,0,-3.4075,-3.4076,0,-3.4095,-3.4095,-3.4095,-3.4048,-3.4047,-3.4045,-3.4044,-3.4061,-3.4063,-3.4064,0,0,0,0,0,0,0,0,0,0,0,0,0,-3.3995,-3.3997,-3.4075,-3.4076,-3.4076,-3.4095,-3.4095,-3.4095,-3.4048,-3.4047,-3.4045,-3.4043,-3.406,-3.4062,-3.4065,0,0,0,0,0,0,0,0,0,0,0,0,0,-3.4024,-3.3997,-3.4075,-3.4055,-3.4053,-3.4095,-3.4095,-3.4095,-3.4049,-3.4047,-3.4044,-3.4042,-3.4059,-3.4062,-3.4065,-3.4126,0,0,-3.4073,-3.4074,0,0,0,0,0,0,0,0,-3.4022,-3.4027,-3.4058,-3.4056,-3.4054,-3.4067,-3.4073,-3.4106,-3.4049,-3.405,-3.4044,-3.4041,-3.4064,-3.4067,-3.4075,-3.4127,-3.4128,-3.4073,-3.4075,-3.4076,-3.4077,0,0,0,0,0,0,0,-3.402,-3.4025,-3.4083,-3.4058,-3.4056,-3.4044,-3.4045,-3.4079,-3.4069,-3.405,-3.4047,-3.405,-3.4063,-3.4073,-3.4075,-3.4128,-3.4073,-3.4076,-3.4078,-3.4079,-3.4233,-3.4235,0,0,0,0,0,0,-3.4021,-3.4024,-3.4082,-3.4083,-3.4033,-3.4047,-3.4049,-3.4065,-3.4069,-3.4068,-3.4052,-3.4048,-3.4069,-3.4072,-3.4075,-3.4149,-3.4076,-3.4079,-3.408,-3.4231,-3.4233,-3.4236,0,0,0,0,0,0,-3.402,-3.4027,-3.4081,-3.4053,-3.4059,-3.4051,-3.4069,-3.4067,-3.4076,-3.407,-3.4068,-3.4063,-3.4067,-3.4072,-3.4115,-3.4149,-3.408,-3.4083,-3.4228,-3.4231,-3.4235,-3.4296,0,0,0,0,0,0,-3.4017,-3.4026,-3.405,-3.4054,-3.4061,-3.4121,-3.4071,-3.4069,-3.4081,-3.4076,-3.4081,-3.4079,-3.4066,-3.4111,-3.4117,-3.4151,-3.4085,-3.4225,-3.4229,-3.4234,-3.4291,-3.4301,-3.431,0,0,0,0,0,-3.4015,-3.4066,-3.4052,-3.4059,-3.409,-3.4123,-3.4127,-3.4112,-3.4084,-3.4108,-3.4104,-3.4079,-3.4144,-3.4116,-3.4123,-3.4158,-3.4222,-3.4228,-3.4233,-3.4286,-3.4299,-3.431,0,0,0,0,0,0,-3.4064,-3.4066,-3.405,-3.4104,-3.4114,-3.4115,-3.4144,-3.4125,-3.4142,-3.4137,-3.4116,-3.4117,-3.4164,-3.4165,-3.4133,-3.4218,-3.4178,-3.4186,-3.4216,-3.4228,-3.4238,-3.4237,-3.4087,0,0,0,0,0,-3.4082,-3.4109,-3.4108,-3.4156,-3.4162,-3.4153,-3.4166,-3.4154,-3.4163,-3.4166,-3.4166,-3.4175,-3.4198,-3.4213,-3.4233,-3.429,-3.4291,-3.4318,-3.4328,-3.4336,-3.4343,-3.4374,-3.4387,-3.4254,-3.4254,-3.4254,0,0,-3.4118,-3.4122,-3.414,-3.4166,-3.4172,-3.4201,-3.4156,-3.4188,-3.4209,-3.4171,-3.4212,-3.4212,-3.4221,-3.4272,-3.4294,-3.4274,-3.4379,-3.4343,-3.4349,-3.4352,-3.4381,-3.4394,-3.4405,-3.4258,-3.4257,-3.4257,0,0,-3.4198,-3.4204,-3.4245,-3.4252,-3.4263,-3.4257,-3.4267,-3.4272,-3.4271,-3.4312,-3.4285,-3.4309,-3.4347,-3.4355,-3.4365,-3.445,-3.4427,-3.4457,-3.4507,-3.4539,-3.4549,-3.4558,-3.459,-3.4601,-3.4463,-3.4463,-3.4463,0,-3.4241,-3.4284,-3.4268,-3.4302,-3.4315,-3.4283,-3.4324,-3.4332,-3.4349,-3.4358,-3.4335,-3.4385,-3.4388,-3.4441,-3.4462,-3.447,-3.4481,-3.4456,-3.4549,-3.4558,-3.4566,-3.4596,-3.4608,-3.4467,-3.4466,-3.4466,-3.4466,0,-3.4337,-3.4367,-3.4399,-3.4418,-3.4433,-3.4471,-3.446,-3.4478,-3.4464,-3.446,-3.4503,-3.4507,-3.4528,-3.4539,-3.4525,-3.4591,-3.4578,-3.4553,-3.4512,-3.4583,-3.4611,-3.4622,-3.4472,-3.4471,-3.447,-3.4469,0,0,-3.4448,-3.4459,-3.4471,-3.448,-3.4491,-3.4513,-3.4549,-3.4572,-3.4588,-3.46,-3.4631,-3.4665,-3.4642,-3.4653,-3.4639,-3.4667,-3.4736,-3.4638,-3.4638,-3.4657,-3.4809,-3.483,-3.4843,-3.4721,-3.4723,-3.4724,-3.4809,0,-3.4529,-3.4593,-3.458,-3.4643,-3.4671,-3.4642,-3.4674,-3.4683,-3.4681,-3.4704,-3.47,-3.4726,-3.4692,-3.4699,-3.4725,-3.4722,-3.4766,-3.4715,-3.4749,-3.475,-3.4749,-3.4857,-3.4878,-3.4958,-3.482,-3.4821,-3.4823,0,-3.4631,-3.465,-3.4716,-3.4724,-3.4735,-3.4764,-3.4784,-3.4806,-3.4817,-3.4813,-3.4826,-3.4808,-3.4843,-3.4802,-3.4852,-3.4818,-3.483,-3.4831,-3.4834,-3.4837,-3.4791,-3.4865,-3.4983,-3.4996,-3.4839,-3.4838,-3.4837,0,-3.4708,-3.4749,-3.4795,-3.4803,-3.4813,-3.4834,-3.4839,-3.4847,-3.4862,-3.4879,-3.4888,-3.4909,-3.492,-3.4936,-3.4924,-3.4895,-3.4976,-3.4933,-3.4974,-3.4975,-3.4993,-3.4992,-3.5116,-3.4999,-3.4999,-3.4999,-3.4999,0,-3.48,-3.4842,-3.483,-3.4858,-3.4904,-3.4888,-3.4934,-3.4935,-3.4943,-3.497,-3.4946,-3.4972,-3.4954,-3.4978,-3.4969,-3.5012,-3.5016,-3.5015,-3.5012,-3.5018,-3.5018,-3.5026,-3.5021,-3.5002,-3.5001,-3.5001,-3.5,0,-3.4894,-3.4887,-3.4935,-3.4941,-3.4943,-3.4977,-3.4982,-3.5008,-3.5004,-3.5039,-3.5046,-3.5039,-3.5067,-3.5057,-3.5085,-3.5079,-3.5135,-3.5124,-3.5132,-3.513,-3.5171,-3.5168,-3.5306,-3.5324,-3.5195,-3.5196,-3.5197,0,-3.4953,-3.4985,-3.4995,-3.5013,-3.502,-3.5048,-3.5063,-3.5049,-3.5066,-3.5082,-3.5106,-3.5132,-3.5152,-3.5197,-3.5194,-3.5217,-3.5207,-3.5254,-3.521,-3.5215,-3.5209,-3.5208,-3.5212,-3.5263,-3.5264,-3.5265,-3.5266,0,-3.506,-3.5056,-3.508,-3.5104,-3.5124,-3.5141,-3.5156,-3.5171,-3.5158,-3.5179,-3.5208,-3.5223,-3.5254,-3.528,-3.53,-3.5304,-3.5284,-3.528,-3.5291,-3.5298,-3.5302,-3.5302,-3.5157,-3.5277,-3.5276,-3.5275,-3.5275,-3.5274,-3.5139,-3.5167,-3.518,-3.5208,-3.5218,-3.5233,-3.5258,-3.5259,-3.5283,-3.5308,-3.5298,-3.5331,-3.5341,-3.5367,-3.5374,-3.54,-3.5381,-3.5396,-3.5401,-3.5405,-3.5411,-3.5297,-3.5403,-3.5402,-3.5402,-3.5402,-3.5402,0,-3.5246,-3.5253,-3.5279,-3.5303,-3.5325,-3.5305,-3.5321,-3.5341,-3.5371,-3.5383,-3.5404,-3.5438,-3.5463,-3.5463,-3.5487,-3.5508,-3.5499,-3.5515,-3.5514,-3.5515,-3.5425,-3.5414,-3.5522,-3.5522,-3.5522,-3.5522,-3.5521,-3.5521,-3.5305,-3.5351,-3.5349,-3.54,-3.5406,-3.5441,-3.5452,-3.5466,-3.5475,-3.5515,-3.5537,-3.5537,-3.5544,-3.5569,-3.5591,-3.5591,-3.5601,-3.5621,-3.5617,-3.5533,-3.5521,-3.551,-3.5499,-3.5623,-3.5623,-3.5704,-3.5705,-3.5705]}]]